| time (UTC) | temp F | wind direction | speed knots | gust knots | rain 1hr in | rain 24hr in | rain mn in | humidity % | barometer mb |
| 20260905044521 | 74 | 117 | 0.0 | 0.0 | 0.00 | 0.02 | 0.00 | 1 | 1012.7 |
| 20260905043016 | 74 | 117 | 0.0 | 0.0 | 0.00 | 0.02 | 0.00 | 1 | 1012.9 |
| 20260905041612 | 74 | 117 | 0.0 | 0.0 | 0.00 | 0.02 | 0.00 | 1 | 1013.0 |
| 20260905040015 | 74 | 117 | 0.0 | 0.0 | 0.01 | 0.02 | 0.00 | 1 | 1012.9 |
| 20260905034506 | 75 | 117 | 0.0 | 0.0 | 0.01 | 0.02 | 0.02 | 1 | 1012.7 |
| 20260905033059 | 75 | 113 | 0.0 | 0.0 | 0.01 | 0.02 | 0.02 | 3 | 1012.5 |
| 20260905031556 | 75 | 256 | 0.0 | 0.0 | 0.01 | 0.02 | 0.02 | 19 | 1011.8 |
| 20260905024550 | 75 | 256 | 0.0 | 0.0 | 0.00 | 0.01 | 0.01 | 26 | 1011.6 |
| 20260905023042 | 75 | 256 | 0.0 | 0.0 | 0.00 | 0.01 | 0.01 | 32 | 1011.3 |
| 20260905021541 | 75 | 256 | 0.0 | 0.0 | 0.00 | 0.01 | 0.01 | 35 | 1011.4 |
| 20260905020033 | 76 | 256 | 0.0 | 0.0 | 0.00 | 0.01 | 0.01 | 39 | 1011.7 |
| 20260905014535 | 76 | 256 | 0.0 | 0.0 | 0.00 | 0.01 | 0.01 | 42 | 1011.5 |
| 20260905013025 | 76 | 256 | 0.0 | 0.0 | 0.00 | 0.01 | 0.01 | 46 | 1010.9 |
| 20260905011520 | 76 | 256 | 0.0 | 0.0 | 0.00 | 0.01 | 0.01 | 47 | 1010.8 |
| 20260905010018 | 76 | 172 | 0.0 | 0.0 | 0.00 | 0.01 | 0.01 | 51 | 1010.6 |
| 20260905004512 | 77 | 172 | 0.0 | 0.0 | 0.00 | 0.01 | 0.01 | 51 | 1010.6 |
| 20260905003009 | 77 | 172 | 0.0 | 0.0 | 0.00 | 0.01 | 0.01 | 54 | 1010.6 |
| 20260905001503 | 77 | 172 | 0.0 | 0.0 | 0.00 | 0.01 | 0.01 | 53 | 1011.0 |
| 20260905000105 | 78 | 172 | 0.0 | 0.0 | 0.00 | 0.01 | 0.01 | 53 | 1011.3 |
| 20260904234604 | 78 | 172 | 0.0 | 0.0 | 0.00 | 0.01 | 0.01 | 58 | 1011.7 |
| 20260904233052 | 78 | 169 | 0.0 | 2.6 | 0.00 | 0.01 | 0.01 | 58 | 1011.7 |
| 20260904231545 | 78 | 125 | 0.0 | 0.0 | 0.00 | 0.01 | 0.01 | 54 | 1011.7 |
| 20260904230041 | 79 | 161 | 0.0 | 0.0 | 0.00 | 0.01 | 0.01 | 53 | 1011.8 |
| 20260904224537 | 79 | 153 | 0.0 | 0.9 | 0.01 | 0.01 | 0.01 | 63 | 1011.7 |
| 20260904223043 | 81 | 115 | 0.0 | 0.0 | 0.01 | 0.01 | 0.01 | 63 | 1012.2 |
| 20260904221542 | 82 | 110 | 0.0 | 0.0 | 0.01 | 0.01 | 0.01 | 69 | 1011.3 |
| 20260904220024 | 85 | 163 | 0.0 | 0.0 | 0.01 | 0.01 | 0.01 | 68 | 1010.8 |
| 20260904214521 | 86 | 137 | 0.0 | 0.0 | 0.00 | 0.00 | 0.00 | 64 | 1010.6 |
| 20260904213018 | 87 | 129 | 0.0 | 0.0 | 0.00 | 0.00 | 0.00 | 61 | 1010.4 |
| 20260904211511 | 88 | 171 | 0.0 | 0.0 | 0.00 | 0.00 | 0.00 | 58 | 1010.3 |
| 20260904210007 | 89 | 134 | 0.0 | 0.0 | 0.00 | 0.00 | 0.00 | 54 | 1010.3 |
| 20260904204504 | 93 | 171 | 0.0 | 4.3 | 0.00 | 0.00 | 0.00 | 50 | 1010.0 |
| 20260904203057 | 97 | 28 | 0.0 | 0.0 | 0.00 | 0.00 | 0.00 | 46 | 1009.9 |
| 20260904201555 | 96 | 49 | 0.0 | 0.0 | 0.00 | 0.00 | 0.00 | 48 | 1009.8 |
| 20260904200109 | 96 | 123 | 0.0 | 0.0 | 0.00 | 0.00 | 0.00 | 46 | 1010.0 |
| 20260904194623 | 96 | 51 | 0.0 | 0.0 | 0.00 | 0.00 | 0.00 | 46 | 1010.4 |
| 20260904193043 | 96 | 313 | 0.0 | 0.0 | 0.00 | 0.00 | 0.00 | 47 | 1010.6 |
| 20260904191535 | 96 | 315 | 0.0 | 0.0 | 0.00 | 0.00 | 0.00 | 47 | 1011.0 |
| 20260904190030 | 95 | 317 | 0.0 | 0.9 | 0.00 | 0.00 | 0.00 | 48 | 1011.2 |
| 20260904184525 | 95 | 76 | 0.0 | 0.0 | 0.00 | 0.00 | 0.00 | 48 | 1011.3 |
| 20260904183020 | 96 | 31 | 0.0 | 0.0 | 0.00 | 0.00 | 0.00 | 45 | 1011.6 |
| 20260904181516 | 95 | 107 | 0.0 | 0.9 | 0.00 | 0.00 | 0.00 | 48 | 1011.8 |
| 20260904180012 | 96 | 300 | 0.0 | 0.0 | 0.00 | 0.00 | 0.00 | 46 | 1012.0 |
| 20260904174509 | 98 | 340 | 0.0 | 0.0 | 0.00 | 0.00 | 0.00 | 43 | 1012.2 |
| 20260904173002 | 97 | 300 | 0.0 | 0.0 | 0.00 | 0.00 | 0.00 | 45 | 1012.4 |
| 20260904171559 | 96 | 325 | 0.0 | 0.0 | 0.00 | 0.00 | 0.00 | 49 | 1012.5 |
| 20260904170054 | 97 | 32 | 0.0 | 0.0 | 0.00 | 0.00 | 0.00 | 46 | 1012.6 |
| 20260904164555 | 96 | 296 | 0.0 | 0.0 | 0.00 | 0.00 | 0.00 | 49 | 1012.7 |
| 20260904163046 | 96 | 31 | 0.0 | 0.0 | 0.00 | 0.00 | 0.00 | 47 | 1013.0 |
| 20260904161546 | 95 | 300 | 0.0 | 0.0 | 0.00 | 0.00 | 0.00 | 49 | 1013.3 |
| 20260904160040 | 95 | 221 | 0.0 | 0.0 | 0.00 | 0.00 | 0.00 | 50 | 1013.4 |
| 20260904154533 | 96 | 318 | 0.0 | 0.0 | 0.00 | 0.00 | 0.00 | 51 | 1013.4 |
| 20260904153029 | 94 | 106 | 0.0 | 0.0 | 0.00 | 0.00 | 0.00 | 51 | 1013.4 |
| 20260904151536 | 93 | 284 | 0.0 | 0.0 | 0.00 | 0.00 | 0.00 | 56 | 1013.5 |
| 20260904150020 | 92 | 311 | 0.0 | 0.0 | 0.00 | 0.00 | 0.00 | 59 | 1013.7 |
| 20260904144516 | 91 | 308 | 0.0 | 0.0 | 0.00 | 0.00 | 0.00 | 60 | 1013.6 |
| 20260904143011 | 90 | 314 | 0.0 | 0.0 | 0.00 | 0.00 | 0.00 | 63 | 1013.6 |
| 20260904141506 | 88 | 336 | 0.0 | 0.9 | 0.00 | 0.00 | 0.00 | 66 | 1013.8 |
| 20260904140002 | 88 | 294 | 0.0 | 1.7 | 0.00 | 0.00 | 0.00 | 65 | 1013.7 |
| 20260904134609 | 86 | 291 | 0.0 | 0.0 | 0.00 | 0.00 | 0.00 | 67 | 1013.8 |
| 20260904133108 | 85 | 269 | 0.0 | 0.0 | 0.00 | 0.00 | 0.00 | 67 | 1013.8 |
| 20260904131602 | 83 | 302 | 0.0 | 0.0 | 0.00 | 0.00 | 0.00 | 65 | 1014.0 |
| 20260904130045 | 82 | 298 | 0.0 | 0.0 | 0.00 | 0.00 | 0.00 | 59 | 1014.3 |
| 20260904124541 | 80 | 302 | 0.0 | 0.0 | 0.00 | 0.00 | 0.00 | 37 | 1014.2 |
| 20260904123037 | 78 | 307 | 0.0 | 0.0 | 0.00 | 0.00 | 0.00 | 12 | 1014.4 |
| 20260904121537 | 75 | 96 | 0.0 | 0.0 | 0.00 | 0.00 | 0.00 | 1 | 1014.3 |
| 20260904120032 | 74 | 96 | 0.0 | 0.0 | 0.00 | 0.00 | 0.00 | 1 | 1014.2 |
| 20260904114524 | 74 | 98 | 0.0 | 0.0 | 0.00 | 0.00 | 0.00 | 1 | 1014.1 |
| 20260904113031 | 74 | 98 | 0.0 | 0.0 | 0.00 | 0.00 | 0.00 | 1 | 1014.1 |
| 20260904111522 | 74 | 98 | 0.0 | 0.0 | 0.00 | 0.00 | 0.00 | 1 | 1013.9 |
| 20260904110010 | 74 | 98 | 0.0 | 0.0 | 0.00 | 0.00 | 0.00 | 1 | 1013.8 |
| 20260904104507 | 74 | 98 | 0.0 | 0.0 | 0.00 | 0.00 | 0.00 | 1 | 1013.6 |
| 20260904103004 | 74 | 98 | 0.0 | 0.0 | 0.00 | 0.00 | 0.00 | 1 | 1013.5 |
| 20260904101559 | 74 | 98 | 0.0 | 0.0 | 0.00 | 0.00 | 0.00 | 1 | 1013.5 |
| 20260904094549 | 75 | 98 | 0.0 | 0.0 | 0.00 | 0.00 | 0.00 | 1 | 1013.6 |
| 20260904093052 | 75 | 98 | 0.0 | 0.0 | 0.00 | 0.00 | 0.00 | 5 | 1013.5 |
| 20260904091542 | 75 | 98 | 0.0 | 0.0 | 0.00 | 0.00 | 0.00 | 3 | 1013.1 |
| 20260904090046 | 76 | 98 | 0.0 | 0.0 | 0.00 | 0.00 | 0.00 | 1 | 1013.0 |
| 20260904084535 | 76 | 98 | 0.0 | 0.0 | 0.00 | 0.00 | 0.00 | 1 | 1012.7 |
| 20260904083032 | 76 | 98 | 0.0 | 0.0 | 0.00 | 0.00 | 0.00 | 1 | 1012.7 |
| 20260904081527 | 76 | 99 | 0.0 | 0.0 | 0.00 | 0.00 | 0.00 | 1 | 1012.4 |
| 20260904080035 | 76 | 101 | 0.0 | 0.0 | 0.00 | 0.00 | 0.00 | 4 | 1012.5 |
| 20260904074529 | 76 | 101 | 0.0 | 0.0 | 0.00 | 0.00 | 0.00 | 9 | 1012.4 |
| 20260904073018 | 76 | 101 | 0.0 | 0.0 | 0.00 | 0.00 | 0.00 | 14 | 1012.6 |
| 20260904071516 | 76 | 101 | 0.0 | 0.0 | 0.00 | 0.00 | 0.00 | 19 | 1012.6 |
| 20260904070013 | 76 | 101 | 0.0 | 0.0 | 0.00 | 0.00 | 0.00 | 25 | 1012.7 |
| 20260904064510 | 76 | 101 | 0.0 | 0.0 | 0.00 | 0.00 | 0.00 | 31 | 1013.0 |
| 20260904063014 | 76 | 101 | 0.0 | 0.0 | 0.00 | 0.00 | 0.00 | 36 | 1013.2 |
| 20260904061513 | 76 | 101 | 0.0 | 0.0 | 0.00 | 0.00 | 0.00 | 39 | 1013.6 |
| 20260904060006 | 76 | 101 | 0.0 | 0.0 | 0.00 | 0.00 | 0.00 | 44 | 1013.8 |
| 20260904054600 | 76 | 101 | 0.0 | 0.0 | 0.00 | 0.00 | 0.00 | 47 | 1013.9 |
| 20260904053103 | 77 | 101 | 0.0 | 0.0 | 0.00 | 0.00 | 0.00 | 49 | 1014.0 |
| 20260904051556 | 77 | 101 | 0.0 | 0.0 | 0.00 | 0.00 | 0.00 | 57 | 1014.2 |
| 20260904050115 | 77 | 101 | 0.0 | 0.0 | 0.00 | 0.00 | 0.00 | 59 | 1014.3 |